When you browse on this site, cookies collect data to enhance your experience and personalize the content and advertising you see.
Visit our Privacy Policy to learn more. By continuing to use the site, you agree to this use of cookies and data.
  • en Belgique
  • Liste des pays
  • À 7 jours
  • Température de l'eau
  • Carte satellitaire
  • Carte météo
  • Widgets météo
  • user-avatar
    Se connecter

    Météo par heure à Rachanie

    Ce jour, 21 Février, Jeudi

    Heure Température Précipitation Vent Pression Humidité
    00:00 +1°C° 0 mm 5 m/s 745 mmHg 81%
    01:00 0°C° 0 mm 5 m/s 745 mmHg 84%
    02:00 0°C° 0 mm 5 m/s 745 mmHg 87%
    03:00 -1°C° 0 mm 5 m/s 745 mmHg 88%
    04:00 -1°C° 0 mm 4 m/s 746 mmHg 90%
    05:00 -1°C° 0 mm 4 m/s 746 mmHg 92%
    06:00 -1°C° 0 mm 4 m/s 746 mmHg 92%
    07:00 -1°C° 0 mm 4 m/s 746 mmHg 93%
    08:00 -1°C° 0 mm 4 m/s 746 mmHg 93%
    09:00 0°C° 0 mm 4 m/s 746 mmHg 91%
    10:00 +1°C° 0 mm 5 m/s 746 mmHg 88%
    11:00 +2°C° 0 mm 5 m/s 747 mmHg 85%
    12:00 +2°C° 0.2 mm 5 m/s 746 mmHg 85%
    13:00 +2°C° 0.2 mm 5 m/s 746 mmHg 85%
    14:00 +3°C° 0.2 mm 5 m/s 746 mmHg 85%
    15:00 +3°C° 0.1 mm 5 m/s 746 mmHg 84%
    16:00 +4°C° 0.1 mm 4 m/s 745 mmHg 82%
    17:00 +5°C° 0.1 mm 4 m/s 745 mmHg 81%
    18:00 +4°C° 0.4 mm 4 m/s 745 mmHg 83%
    19:00 +4°C° 0.4 mm 4 m/s 745 mmHg 85%
    20:00 +4°C° 0.4 mm 4 m/s 744 mmHg 86%
    21:00 +4°C° 0.9 mm 4 m/s 744 mmHg 87%
    22:00 +3°C° 0.9 mm 5 m/s 744 mmHg 89%
    23:00 +2°C° 0.9 mm 5 m/s 743 mmHg 90%

    Demain, 22 Février, Vendredi

    Heure Température Précipitation Vent Pression Humidité
    00:00 +2°C° 0.8 mm 5 m/s 743 mmHg 90%
    01:00 +3°C° 0.8 mm 4 m/s 743 mmHg 91%
    02:00 +3°C° 0.8 mm 4 m/s 743 mmHg 91%
    03:00 +3°C° 0.7 mm 4 m/s 743 mmHg 92%
    04:00 +1°C° 0.7 mm 4 m/s 742 mmHg 93%
    05:00 +1°C° 0.7 mm 4 m/s 742 mmHg 95%
    06:00 -1°C° 0.6 mm 5 m/s 743 mmHg 92%
    07:00 -4°C° 0.6 mm 6 m/s 744 mmHg 89%
    08:00 -6°C° 0.6 mm 8 m/s 744 mmHg 86%
    09:00 -6°C° 0 mm 8 m/s 746 mmHg 81%
    10:00 -6°C° 0 mm 8 m/s 747 mmHg 75%
    11:00 -6°C° 0 mm 7 m/s 749 mmHg 70%
    12:00 -6°C° 0 mm 7 m/s 750 mmHg 66%
    13:00 -6°C° 0 mm 7 m/s 751 mmHg 63%
    14:00 -5°C° 0 mm 6 m/s 751 mmHg 59%
    15:00 -6°C° 0 mm 6 m/s 752 mmHg 59%
    16:00 -6°C° 0 mm 6 m/s 752 mmHg 58%
    17:00 -6°C° 0 mm 6 m/s 753 mmHg 58%
    18:00 -8°C° 0 mm 6 m/s 753 mmHg 58%
    19:00 -8°C° 0 mm 6 m/s 754 mmHg 57%
    20:00 -8°C° 0 mm 6 m/s 755 mmHg 56%
    21:00 -9°C° 0 mm 6 m/s 755 mmHg 54%
    22:00 -9°C° 0 mm 6 m/s 756 mmHg 53%
    23:00 -9°C° 0 mm 6 m/s 756 mmHg 51%

    Après-demain, 23 Février, Samedi

    Heure Température Précipitation Vent Pression Humidité
    00:00 -9°C° 0 mm 6 m/s 757 mmHg 51%
    01:00 -9°C° 0 mm 6 m/s 757 mmHg 52%
    02:00 -8°C° 0 mm 5 m/s 757 mmHg 53%
    03:00 -10°C° 0 mm 5 m/s 757 mmHg 54%
    04:00 -10°C° 0 mm 5 m/s 757 mmHg 55%
    05:00 -10°C° 0 mm 5 m/s 757 mmHg 56%
    06:00 -9°C° 0 mm 4 m/s 758 mmHg 57%
    07:00 -9°C° 0 mm 4 m/s 758 mmHg 58%
    08:00 -9°C° 0 mm 4 m/s 758 mmHg 59%
    09:00 -9°C° 0 mm 4 m/s 759 mmHg 57%
    10:00 -8°C° 0 mm 4 m/s 759 mmHg 54%
    11:00 -8°C° 0 mm 5 m/s 759 mmHg 51%
    12:00 -7°C° 0 mm 4 m/s 759 mmHg 48%
    13:00 -5°C° 0 mm 4 m/s 759 mmHg 46%
    14:00 -5°C° 0 mm 4 m/s 759 mmHg 44%
    15:00 -5°C° 0 mm 4 m/s 759 mmHg 44%
    16:00 -5°C° 0 mm 4 m/s 759 mmHg 45%
    17:00 -5°C° 0 mm 4 m/s 759 mmHg 46%
    18:00 -5°C° 0 mm 3 m/s 759 mmHg 49%
    19:00 -6°C° 0 mm 3 m/s 759 mmHg 52%
    20:00 -5°C° 0 mm 2 m/s 759 mmHg 55%
    21:00 -5°C° 0 mm 2 m/s 759 mmHg 54%
    22:00 -5°C° 0 mm 2 m/s 759 mmHg 53%
    23:00 -5°C° 0 mm 2 m/s 759 mmHg 52%

    24 Février, Dimanche

    Heure Température Précipitation Vent Pression Humidité
    00:00 -5°C° 0 mm 2 m/s 759 mmHg 53%
    01:00 -5°C° 0 mm 2 m/s 758 mmHg 54%
    02:00 -5°C° 0 mm 2 m/s 758 mmHg 55%
    03:00 -5°C° 0 mm 2 m/s 758 mmHg 53%
    04:00 -5°C° 0 mm 2 m/s 758 mmHg 51%
    05:00 -4°C° 0 mm 2 m/s 757 mmHg 48%
    06:00 -4°C° 0 mm 2 m/s 757 mmHg 47%
    07:00 -4°C° 0 mm 2 m/s 757 mmHg 46%
    08:00 -4°C° 0 mm 2 m/s 757 mmHg 45%
    09:00 -4°C° 0 mm 3 m/s 757 mmHg 42%
    10:00 -2°C° 0 mm 3 m/s 756 mmHg 39%
    11:00 -2°C° 0 mm 4 m/s 756 mmHg 37%
    12:00 -1°C° 0 mm 4 m/s 756 mmHg 36%
    13:00 0°C° 0 mm 4 m/s 755 mmHg 36%
    14:00 0°C° 0 mm 4 m/s 755 mmHg 36%
    15:00 0°C° 0 mm 4 m/s 754 mmHg 40%
    16:00 0°C° 0 mm 4 m/s 754 mmHg 43%
    17:00 +1°C° 0 mm 3 m/s 753 mmHg 46%
    18:00 0°C° 0 mm 4 m/s 753 mmHg 51%
    19:00 -1°C° 0 mm 4 m/s 753 mmHg 56%
    20:00 -1°C° 0 mm 4 m/s 752 mmHg 61%
    21:00 -1°C° 0.1 mm 4 m/s 752 mmHg 66%
    22:00 -1°C° 0.1 mm 4 m/s 752 mmHg 71%
    23:00 -1°C° 0.1 mm 5 m/s 751 mmHg 76%

    25 Février, Lundi

    Heure Température Précipitation Vent Pression Humidité
    00:00 -2°C° 0 mm 5 m/s 751 mmHg 79%
    01:00 -2°C° 0 mm 5 m/s 750 mmHg 83%
    02:00 -2°C° 0 mm 5 m/s 749 mmHg 87%
    03:00 -2°C° 0.1 mm 6 m/s 749 mmHg 88%
    04:00 -2°C° 0.1 mm 6 m/s 749 mmHg 90%
    05:00 -1°C° 0.1 mm 7 m/s 749 mmHg 91%
    06:00 -1°C° 0 mm 7 m/s 749 mmHg 88%
    07:00 -1°C° 0 mm 7 m/s 749 mmHg 86%
    08:00 -2°C° 0 mm 7 m/s 749 mmHg 83%
    09:00 -1°C° 0 mm 7 m/s 749 mmHg 80%
    10:00 -1°C° 0 mm 8 m/s 750 mmHg 78%
    11:00 -1°C° 0 mm 9 m/s 750 mmHg 75%
    12:00 0°C° 0 mm 9 m/s 750 mmHg 71%
    13:00 0°C° 0 mm 9 m/s 750 mmHg 66%
    14:00 +1°C° 0 mm 9 m/s 749 mmHg 61%
    15:00 +1°C° 0 mm 9 m/s 749 mmHg 63%
    16:00 0°C° 0 mm 8 m/s 749 mmHg 66%
    17:00 0°C° 0 mm 8 m/s 749 mmHg 68%
    18:00 -1°C° 0 mm 7 m/s 749 mmHg 69%
    19:00 -1°C° 0 mm 7 m/s 750 mmHg 70%
    20:00 -2°C° 0 mm 6 m/s 750 mmHg 71%
    21:00 -2°C° 0 mm 6 m/s 750 mmHg 74%
    22:00 -3°C° 0 mm 6 m/s 750 mmHg 77%
    23:00 -2°C° 0 mm 5 m/s 751 mmHg 81%

    26 Février, Mardi

    Heure Température Précipitation Vent Pression Humidité
    00:00 -2°C° 0 mm 5 m/s 751 mmHg 84%
    01:00 -4°C° 0 mm 5 m/s 751 mmHg 86%
    02:00 -4°C° 0 mm 5 m/s 750 mmHg 89%
    03:00 -4°C° 0 mm 5 m/s 750 mmHg 90%
    04:00 -2°C° 0 mm 5 m/s 750 mmHg 91%
    05:00 -2°C° 0 mm 5 m/s 750 mmHg 91%
    06:00 -2°C° 0 mm 5 m/s 750 mmHg 91%
    07:00 -2°C° 0 mm 4 m/s 750 mmHg 90%
    08:00 -2°C° 0 mm 4 m/s 750 mmHg 89%
    09:00 -2°C° 0 mm 4 m/s 750 mmHg 87%
    10:00 -1°C° 0 mm 4 m/s 750 mmHg 85%
    11:00 0°C° 0 mm 4 m/s 750 mmHg 82%
    12:00 +1°C° 0 mm 4 m/s 749 mmHg 79%
    13:00 +3°C° 0 mm 4 m/s 749 mmHg 76%
    14:00 +4°C° 0 mm 4 m/s 748 mmHg 72%
    15:00 +4°C° 0 mm 4 m/s 748 mmHg 73%
    16:00 +3°C° 0 mm 3 m/s 748 mmHg 73%
    17:00 +3°C° 0 mm 3 m/s 747 mmHg 74%
    18:00 +2°C° 0 mm 3 m/s 747 mmHg 76%
    19:00 +1°C° 0 mm 3 m/s 747 mmHg 78%
    20:00 0°C° 0 mm 3 m/s 747 mmHg 80%
    21:00 0°C° 0 mm 3 m/s 747 mmHg 81%
    22:00 0°C° 0 mm 3 m/s 746 mmHg 82%
    23:00 0°C° 0 mm 3 m/s 746 mmHg 83%
    Voir plus